Flag for Germany Weather past 2 weeks in Fürth, Bavaria, Germany

Now
43 °F

Partly sunny.


Feels Like: 38 °F
Forecast: 32 / 49 °F
Wind: 8 mph from West

Location: Nuernberg

Current Time: Mar 6, 2015 at 3:58:49 PM

Latest Report: Mar 6, 2015 at 3:20 PM


Visibility: N/A

Pressure: 30.57 "Hg

Humidity: 66%

Dew point: 32 °F

Location of FürthLocation

Historic Weather in Fürth — Graph

°F

Fürth temperature yesterday

Maximum temperature yesterday: 43 °F (at 1:20 PM)
Minimum temperature yesterday: 34 °F (at 12:20 AM)
Average temperature yesterday: 38 °F

Past Weeks' High & Low Weather Summary

 TemperatureHumidityPressure
High52 °F (Feb 20, 2:20 PM)100% (Feb 20, 1:50 AM)30.63 "Hg (Feb 20, 1:50 AM)
Low21 °F (Feb 20, 6:20 AM)43% (Mar 3, 4:20 PM)29.47 "Hg (Feb 21, 1:20 PM)
Average37 °F81%29.99 "Hg
* Reported Feb 19 2:20 PM — Mar 6 2:50 PM, Fürth, Weather by CustomWeather, © 2015

Note: Actual official high and low records may vary slightly from our data, if they occured in-between our weather recording intervals... More about our weather records

Advertising

Fürth weather history for previous 24 hours

 ConditionsComfort  
Time TempWeatherWind HumidityBarometerVisibility
2:50 PM
Fri, Mar 6
43 °FPartly sunny.8 mph66%30.60 "HgN/A
2:20 PM43 °FPartly sunny.9 mph61%30.60 "HgN/A
1:50 PM43 °FPartly sunny.7 mph66%30.60 "HgN/A
1:20 PM43 °FPartly sunny.8 mph61%30.60 "HgN/A
12:50 PM43 °FPartly sunny.5 mph61%30.60 "HgN/A
12:20 PM43 °FBroken clouds.3 mph61%30.60 "HgN/A
11:50 AM43 °FBroken clouds.2 mph66%30.63 "HgN/A
11:20 AM43 °FBroken clouds.5 mph66%30.63 "HgN/A
10:50 AM41 °FBroken clouds.3 mph70%30.63 "HgN/A
10:20 AM37 °FScattered clouds.2 mph75%30.63 "HgN/A
9:50 AM37 °FPartly sunny.2 mph81%30.63 "HgN/A
9:20 AM36 °FPartly sunny.3 mph81%30.63 "HgN/A
8:50 AM34 °FPartly sunny.3 mph87%30.63 "HgN/A
8:20 AM32 °FPartly sunny.2 mph93%30.63 "HgN/A
7:50 AM32 °FPartly sunny.2 mph87%30.63 "HgN/A
7:20 AM30 °FPartly sunny.5 mph93%30.60 "HgN/A
6:50 AM30 °FPartly sunny.2 mph93%30.63 "HgN/A
6:20 AM30 °FClear.2 mph93%30.60 "Hg10 mi
5:50 AM28 °FClear.1 mph86%30.60 "Hg10 mi
5:20 AM27 °FClear.1 mph100%30.60 "Hg10 mi
4:50 AM27 °FClear.2 mph93%30.57 "Hg10 mi
4:20 AM28 °FClear.2 mph93%30.57 "Hg10 mi
3:50 AM27 °FClear.2 mph93%30.57 "Hg10 mi
3:20 AM28 °FClear.2 mph93%30.60 "Hg10 mi
2:50 AM30 °FClear.1 mph86%30.60 "Hg10 mi
2:20 AM28 °FClear.2 mph93%30.60 "Hg10 mi
1:50 AM30 °FPassing clouds.3 mph86%30.60 "HgN/A
1:20 AM30 °FPassing clouds.3 mph86%30.60 "HgN/A
12:50 AM32 °FPassing clouds.No wind87%30.60 "HgN/A
12:20 AM34 °FPartly cloudy.2 mph81%30.60 "HgN/A
11:50 PM
Thu, Mar 5
34 °FClear.2 mph81%30.60 "Hg10 mi
11:20 PM34 °FClear.1 mph81%30.60 "Hg10 mi
10:50 PM34 °FClear.1 mph81%30.60 "Hg10 mi
10:20 PM36 °FClear.1 mph75%30.60 "Hg10 mi
9:50 PM34 °FClear.1 mph75%30.60 "Hg10 mi
9:20 PM36 °FClear.1 mph70%30.57 "Hg10 mi
8:50 PM37 °FClear.1 mph70%30.57 "Hg10 mi
8:20 PM37 °FPassing clouds.3 mph70%30.57 "HgN/A
7:50 PM37 °FClear.2 mph70%30.57 "Hg10 mi
7:20 PM39 °FPassing clouds.2 mph65%30.57 "HgN/A
6:50 PM39 °FPassing clouds.3 mph61%30.57 "HgN/A
6:20 PM41 °FPartly cloudy.3 mph57%30.54 "HgN/A
5:50 PM41 °FScattered clouds.5 mph57%30.54 "HgN/A
5:20 PM41 °FScattered clouds.6 mph57%30.54 "HgN/A
4:50 PM41 °FBroken clouds.6 mph53%30.54 "HgN/A
4:20 PM43 °FBroken clouds.6 mph53%30.54 "HgN/A
3:50 PM43 °FBroken clouds.6 mph49%30.54 "HgN/A
3:20 PM43 °FBroken clouds.8 mph46%30.54 "HgN/A
Weather by CustomWeather, © 2015

See weather overviewHow to use our weather pages